FENGYUN 1C DEB

Satellite information

Favourite Embed

Satellite Type and Status

DEBRISIN ORBIT

Key statistics

Satellite FENGYUN 1C DEB at a glance.

Uptime

9714

Days in orbit

Revolutions

≈ 14.2

Per day

Orbit

SSO

Sun Synchronous Orbit

Inclination

98.6

Latest

Satellite identification and parameters

Extended collection of information and parameters for FENGYUN 1C DEB.

Object identification

Identified? True

Debris? True

Object name: FENGYUN 1C DEB

International designator: 1999-025BFJ

Object number (NORAD): 31064

Object ID (CCSDS): 31064

Country: PEOPLES REPUBLIC OF CHINA (PRC)

Current information (Y/N): Y

RCS size: SMALL

Orbital parameters

Period: 101.256 minutes

Inclination: 98.5738 deg

SMA: 7196.284 km

Apoapsis: 992.011 km

Periapsis: 644.288 km

RAAN: 328.8908 deg

Eccentricy: 0.02415989

Argument of periapsis: 3.2214 deg

Mean anomaly: 55.3997 deg

Mean motion: 14.22133228 rev/day

Mean motion (dot): 0.00001723 rev/day2

B* drag term: 0.00059360363 1/REarth

Two-line elements (TLE)

Creation date: Dec. 12, 2025, 10:14 a.m.

Reference frame: TEME

Reference center: EARTH

Epoch: Dec. 12, 2025, 4:35 a.m. UTC

TLE line 0: 0 FENGYUN 1C DEB

TLE line 1: 1 31064U 99025BFJ 25346.19111203 .00001723 00000-0 59360-3 0 9996

TLE line 2: 2 31064 98.5738 328.8908 0241599 3.2214 55.3997 14.22133228972471

Live tracking on map

Real-time ground track for satellite FENGYUN 1C DEB.

In-orbit conjunctions

A list of the most updated potential collisions computed for object FENGYUN 1C DEB.

Target Orbit TCA Probability of collision Miss distance Type
COSMOS 1371 LEO 2025-04-10 09:27:58 0.0002597255 403.0 (m) PAYLOAD
THOR BURNER 2A R/B SSO 2025-04-05 02:02:43 0.0001181621 941.0 (m) ROCKET BODY

Associated space launch

Chinese polar orbiting meteorological satellite

FENGYUN 1C DEB was lifted into orbit during the mission ‘Long March 4B | Feng Yun 1C’, on board a Long March 4B space rocket.

The launch took place on May 10, 1999, 1:33 a.m. from Launch Complex 7.

For more information about the launch, click the button.

Launch to space Long March 4B | Feng Yun 1C
Long March 4B | Feng Yun 1C

Agency: N/A

Status: Launch Successful

Launch date: May 10, 1999, 1:33 a.m. UTC

Rocket: Long March 4B

Launch pad: Launch Complex 7

Location: Taiyuan Satellite Launch Center, People's Republic of China

...

Latest news about this satellite

There are no fresh news available about this satellite. Check back as we update our databases every day.


Newsletter sign-up

Weekly statistics, charts and insights to help you stay on top of the space industry.